Probability
45 23 3 0 0 0 0 0 0 0 0 0 0 0 0 0 0 0 0 0 0 0 6 13 45 45 52 45 52 48 55 61 65 65 61 48 45 48 58 58 58 55 55 58 55 58 61 65 61
23 13 0 0 0 0 0 0 0 0 0 0 0 0 0 0 0 0 0 0 0 0 10 16 32 42 45 42 45 58 55 48 58 58 61 48 45 52 52 52 55 55 61 55 55 55 55 58 61
16 13 0 0 0 0 0 0 0 0 0 0 0 0 0 0 0 0 0 0 0 0 6 19 32 32 45 52 52 55 52 48 48 48 52 55 52 48 48 55 55 58 48 48 52 48 55 61 58
6 0 0 0 0 0 0 0 0 0 0 0 0 0 0 0 0 0 0 0 0 3 13 23 32 39 48 45 48 52 42 45 45 45 45 48 55 61 52 48 55 52 55 48 42 42 39 48 48
0 0 0 0 0 0 0 0 0 0 0 0 0 0 0 0 0 0 0 0 3 10 13 23 39 42 45 45 42 42 42 45 45 48 45 45 45 42 42 45 45 42 39 42 35 35 32 26 35
0 0 0 0 0 0 0 0 0 0 0 0 0 0 0 0 0 0 0 3 3 10 10 23 42 45 45 45 45 39 39 35 39 45 45 45 39 35 35 35 39 29 32 35 39 32 29 32 39
0 0 0 0 0 0 0 0 0 0 0 0 0 0 0 0 0 0 0 3 3 6 10 10 23 23 39 42 39 32 29 29 32 32 35 35 32 32 35 32 32 29 29 29 32 32 35 32 35
0 0 0 0 0 0 0 0 0 0 0 0 0 0 0 0 0 0 0 3 3 6 6 6 10 16 13 19 39 35 23 23 35 32 32 35 29 26 26 23 29 29 23 29 26 23 26 26 29
0 0 0 0 0 0 0 0 0 0 0 0 0 0 0 0 0 0 0 0 6 6 6 6 6 10 10 10 23 23 29 19 19 23 26 13 10 10 16 23 32 23 16 19 26 29 19 19 16
0 0 0 0 0 0 0 0 0 0 0 0 0 0 0 3 3 0 0 0 3 3 6 6 6 6 10 6 3 3 6 6 6 3 3 3 0 3 10 16 19 23 23 16 13 6 3 3 0
0 0 0 0 0 0 0 0 0 0 0 0 0 0 3 6 6 6 3 3 3 3 3 6 6 6 3 3 3 3 3 3 3 3 3 0 0 0 0 0 3 3 6 0 0 0 0 0 0
0 0 0 0 0 0 0 0 0 0 0 0 0 0 3 3 6 6 3 3 3 3 3 6 6 6 6 0 3 3 3 3 3 3 3 0 0 0 0 0 0 0 0 0 0 0 0 0 0
0 0 0 0 0 0 0 0 0 0 0 0 0 0 3 3 6 6 6 3 3 3 3 6 6 3 3 0 0 0 0 0 3 3 0 3 0 0 0 0 0 0 0 0 0 0 0 0 0
0 0 0 0 0 0 0 0 0 0 0 0 0 3 3 3 3 3 6 6 3 3 3 6 6 6 3 0 0 0 0 0 0 0 0 0 0 0 0 0 0 0 0 0 0 0 0 0 0
0 0 0 0 0 0 0 0 0 0 0 0 0 3 3 0 3 3 6 6 3 3 3 6 6 6 3 0 0 0 0 0 0 0 0 0 0 0 0 0 0 0 0 0 0 0 0 0 0
0 0 0 0 0 0 0 0 0 0 0 0 0 0 0 0 0 3 6 6 3 3 3 6 6 6 6 0 0 3 0 0 0 0 0 0 0 0 0 0 0 0 0 0 0 0 0 0 0
0 0 0 0 0 0 0 0 0 0 0 0 0 0 0 0 0 0 0 0 0 0 3 3 6 6 6 3 3 3 0 0 0 0 0 0 0 0 0 0 0 0 0 0 0 0 0 0 0
0 0 0 0 0 0 0 0 0 0 0 0 0 0 0 0 0 0 0 0 0 0 3 3 3 6 6 6 0 3 0 0 0 0 0 0 0 0 0 0 0 0 0 0 0 0 0 0 0
0 0 0 0 0 0 0 0 0 0 0 0 0 0 0 0 0 0 0 0 0 0 3 3 3 0 0 3 0 0 0 0 0 0 0 0 0 0 0 0 0 0 0 0 0 0 0 0 0
0 0 0 0 0 0 0 0 0 0 0 0 0 0 0 0 0 0 3 0 0 3 0 0 0 0 0 6 0 0 0 0 0 0 0 0 0 0 0 0 0 0 0 0 0 0 0 0 0
0 0 0 0 0 0 0 0 0 0 0 0 0 0 0 0 0 3 0 0 0 0 0 0 0 0 0 0 3 0 0 0 0 0 0 0 0 0 0 0 0 0 0 0 0 0 0 0 0
0 0 0 0 0 0 0 0 0 0 0 0 0 0 0 0 0 0 0 0 0 0 0 0 0 0 0 0 0 0 0 0 0 0 0 0 0 0 0 0 0 0 0 0 0 0 0 0 0
0 0 0 0 0 0 0 0 0 0 0 0 0 0 0 0 0 0 0 0 0 0 0 0 0 0 0 0 3 0 0 3 0 0 0 0 0 0 0 0 0 0 0 0 0 0 0 0 0
0 0 0 0 0 0 0 0 0 0 0 0 0 0 0 0 0 0 0 0 0 0 0 0 0 0 3 3 3 3 3 0 0 0 0 0 0 0 0 0 0 0 0 0 0 0 0 0 0
0 0 0 0 0 0 0 0 0 0 0 0 0 0 0 0 0 0 0 0 0 0 0 0 0 3 3 0 0 0 3 0 0 0 0 0 0 0 0 0 0 0 0 0 0 0 0 0 0
0 0 0 0 0 0 0 0 0 0 0 0 0 0 0 0 0 0 0 0 0 0 0 0 0 3 3 0 0 0 3 3 3 0 0 0 0 0 0 0 0 0 0 0 0 0 0 0 0
0 0 0 0 0 0 0 0 0 0 0 0 0 0 0 0 0 0 0 0 0 0 0 0 0 3 3 3 3 3 3 3 3 0 0 0 0 0 0 0 0 0 0 0 0 0 0 0 0
0 0 0 0 0 0 0 0 0 0 0 0 0 0 0 0 0 0 0 0 0 0 0 0 0 0 3 3 3 3 3 3 3 0 0 0 0 0 0 0 0 0 0 0 0 0 0 0 0
0 0 0 0 0 0 0 0 0 0 0 0 0 0 0 0 0 0 0 0 0 0 0 0 0 0 0 3 3 3 3 3 3 3 0 0 0 0 0 0 0 0 0 0 0 0 0 0 0
0 0 0 0 0 0 0 0 0 0 0 0 0 0 0 0 0 0 0 0 0 0 0 0 0 0 0 0 3 3 3 3 3 3 0 0 0 0 0 0 0 0 0 0 0 0 0 0 0
Height
5850 5851 5851 5853 5854 5854 5854 5854 5855 5855 5856 5856 5857 5857 5858 5859 5861 5863 5862 5861 5862 5863 5864 5864 5865 5865 5865 5866 5866 5866 5867 5868 5868 5869 5870 5870 5871 5871 5872 5872 5873 5873 5874 5874 5875 5875 5875 5876 5876
5850 5851 5852 5853 5853 5853 5854 5854 5854 5855 5855 5855 5856 5856 5857 5858 5859 5859 5860 5860 5861 5862 5863 5863 5864 5864 5865 5865 5865 5866 5866 5867 5867 5868 5869 5869 5870 5871 5871 5872 5872 5872 5873 5874 5874 5874 5875 5875 5875
5850 5851 5852 5852 5852 5853 5854 5854 5854 5854 5854 5855 5855 5856 5856 5857 5858 5858 5859 5859 5860 5861 5861 5862 5862 5863 5864 5864 5864 5865 5865 5866 5866 5867 5867 5868 5869 5869 5870 5871 5871 5871 5872 5872 5873 5873 5874 5874 5874
5851 5851 5852 5852 5852 5853 5853 5853 5853 5854 5854 5854 5855 5855 5855 5856 5856 5857 5858 5858 5859 5860 5860 5861 5861 5861 5862 5862 5863 5863 5864 5864 5865 5866 5866 5867 5867 5868 5868 5869 5870 5870 5871 5871 5872 5872 5872 5873 5873
5850 5851 5852 5852 5852 5852 5852 5852 5853 5853 5853 5854 5854 5854 5854 5855 5855 5856 5856 5857 5858 5858 5859 5859 5859 5860 5860 5861 5861 5862 5862 5863 5864 5864 5865 5865 5866 5866 5867 5868 5868 5869 5869 5870 5870 5871 5871 5871 5872
5850 5851 5851 5851 5852 5852 5852 5852 5852 5853 5853 5853 5853 5854 5854 5854 5854 5855 5855 5856 5856 5857 5857 5858 5858 5858 5858 5859 5859 5860 5860 5861 5862 5862 5863 5864 5865 5865 5865 5866 5866 5867 5868 5868 5869 5869 5869 5870 5870
5850 5850 5851 5851 5851 5851 5852 5851 5852 5852 5852 5853 5853 5853 5853 5853 5854 5854 5854 5855 5855 5855 5855 5856 5856 5856 5856 5856 5857 5858 5858 5859 5860 5861 5862 5862 5863 5863 5864 5864 5865 5865 5866 5866 5867 5867 5868 5868 5868
5849 5851 5850 5850 5851 5851 5851 5851 5851 5851 5852 5852 5852 5852 5852 5853 5853 5853 5853 5853 5853 5854 5854 5854 5854 5854 5854 5853 5854 5855 5856 5858 5859 5859 5860 5861 5861 5862 5862 5863 5863 5863 5864 5864 5865 5865 5866 5866 5866
5848 5850 5849 5850 5850 5851 5851 5851 5851 5851 5851 5851 5851 5852 5852 5852 5852 5852 5852 5852 5852 5852 5852 5853 5852 5852 5852 5851 5851 5852 5855 5856 5857 5857 5858 5859 5859 5860 5860 5861 5861 5861 5862 5862 5863 5863 5863 5864 5864
5848 5849 5849 5850 5850 5850 5850 5851 5851 5851 5851 5851 5851 5851 5851 5851 5851 5851 5851 5851 5851 5851 5851 5851 5851 5851 5850 5850 5850 5851 5853 5854 5855 5856 5856 5857 5857 5858 5858 5859 5859 5859 5860 5860 5860 5860 5861 5861 5862
5847 5848 5848 5848 5849 5849 5850 5850 5850 5851 5851 5851 5851 5851 5850 5850 5850 5850 5850 5850 5850 5850 5850 5850 5850 5850 5849 5849 5850 5850 5852 5852 5853 5854 5854 5855 5856 5856 5856 5857 5857 5858 5858 5858 5858 5858 5859 5859 5859
5846 5847 5847 5848 5848 5848 5849 5849 5850 5850 5850 5850 5850 5850 5850 5849 5849 5849 5849 5849 5849 5849 5849 5849 5849 5849 5849 5849 5850 5850 5850 5851 5851 5852 5853 5853 5854 5854 5855 5855 5855 5855 5856 5856 5856 5856 5857 5857 5857
5845 5846 5846 5847 5847 5847 5848 5848 5849 5849 5849 5849 5849 5849 5849 5848 5848 5848 5848 5848 5848 5848 5848 5848 5848 5848 5848 5849 5849 5849 5849 5850 5850 5851 5851 5852 5852 5853 5853 5853 5853 5853 5853 5854 5854 5854 5854 5854 5854
5844 5845 5845 5846 5846 5846 5847 5847 5848 5848 5848 5848 5848 5848 5847 5847 5847 5847 5847 5847 5847 5847 5847 5847 5847 5847 5847 5847 5847 5848 5848 5848 5848 5849 5849 5850 5850 5851 5851 5851 5851 5851 5851 5851 5851 5852 5852 5852 5852
5843 5844 5844 5844 5845 5845 5846 5847 5847 5846 5847 5847 5847 5846 5846 5846 5846 5846 5846 5846 5846 5845 5845 5846 5846 5846 5846 5846 5846 5846 5846 5847 5847 5847 5848 5848 5848 5849 5849 5849 5849 5849 5849 5849 5849 5849 5849 5849 5849
5841 5842 5843 5843 5843 5844 5846 5846 5846 5845 5845 5845 5845 5845 5845 5844 5844 5844 5844 5844 5844 5844 5844 5844 5844 5844 5844 5845 5845 5845 5845 5845 5845 5845 5846 5846 5846 5846 5847 5847 5847 5847 5847 5847 5847 5847 5847 5847 5847
5840 5840 5841 5842 5842 5842 5843 5844 5844 5844 5844 5844 5844 5843 5843 5843 5843 5843 5843 5843 5843 5842 5842 5842 5842 5843 5843 5843 5843 5843 5843 5843 5843 5843 5844 5844 5844 5844 5844 5844 5844 5844 5844 5844 5844 5844 5844 5844 5844
5838 5838 5839 5840 5840 5840 5841 5841 5842 5842 5842 5842 5842 5842 5842 5841 5841 5841 5841 5841 5841 5841 5841 5841 5841 5841 5841 5841 5841 5842 5842 5842 5842 5842 5842 5842 5842 5842 5842 5842 5842 5841 5841 5841 5841 5841 5841 5841 5841
5836 5836 5837 5838 5838 5838 5839 5839 5839 5839 5840 5840 5840 5840 5840 5840 5839 5839 5839 5839 5839 5839 5839 5839 5839 5839 5839 5840 5840 5840 5840 5840 5840 5840 5840 5840 5839 5839 5839 5839 5839 5839 5839 5839 5838 5838 5838 5838 5838
5834 5834 5835 5835 5836 5836 5836 5837 5837 5837 5838 5838 5838 5838 5837 5837 5837 5837 5837 5837 5837 5836 5837 5837 5837 5837 5837 5837 5837 5837 5837 5837 5837 5837 5837 5837 5837 5837 5836 5836 5836 5836 5836 5835 5835 5835 5835 5835 5835
5831 5832 5832 5833 5833 5834 5834 5835 5835 5835 5835 5835 5836 5835 5835 5835 5835 5835 5835 5834 5834 5834 5834 5834 5834 5834 5834 5834 5834 5834 5834 5835 5835 5835 5835 5834 5834 5834 5833 5833 5833 5832 5832 5832 5832 5832 5832 5832 5832
5829 5830 5830 5830 5831 5831 5832 5832 5833 5833 5833 5833 5833 5833 5832 5832 5832 5832 5832 5832 5832 5832 5832 5832 5832 5832 5832 5832 5832 5832 5832 5832 5832 5832 5831 5831 5831 5830 5830 5829 5829 5829 5829 5828 5828 5828 5828 5828 5828
5827 5827 5827 5827 5828 5829 5829 5830 5831 5830 5830 5831 5830 5830 5830 5829 5829 5829 5829 5829 5829 5829 5829 5829 5829 5829 5829 5829 5829 5829 5829 5828 5828 5828 5828 5827 5827 5827 5826 5826 5825 5825 5825 5824 5825 5825 5825 5824 5824
5823 5824 5824 5824 5825 5826 5827 5827 5828 5828 5828 5828 5827 5827 5827 5827 5826 5826 5826 5826 5826 5826 5826 5826 5825 5825 5825 5825 5825 5825 5825 5825 5825 5825 5824 5824 5823 5823 5822 5821 5821 5821 5820 5820 5820 5820 5820 5820 5820
5820 5821 5821 5821 5821 5823 5823 5823 5825 5825 5824 5824 5824 5824 5824 5824 5824 5823 5823 5823 5823 5823 5823 5822 5822 5822 5822 5822 5822 5822 5822 5821 5821 5821 5820 5820 5819 5818 5818 5817 5816 5816 5816 5816 5816 5816 5816 5816 5816
5817 5817 5819 5818 5818 5819 5819 5820 5822 5822 5821 5821 5821 5821 5821 5820 5820 5820 5820 5820 5820 5819 5819 5819 5819 5818 5818 5818 5818 5818 5818 5817 5817 5817 5816 5815 5814 5813 5813 5812 5812 5812 5811 5811 5811 5811 5811 5811 5812
5813 5813 5814 5814 5814 5815 5815 5817 5818 5818 5818 5818 5818 5817 5817 5817 5817 5816 5816 5816 5816 5816 5815 5815 5815 5814 5814 5814 5813 5813 5813 5812 5812 5811 5811 5810 5809 5808 5808 5807 5807 5807 5807 5807 5807 5807 5807 5807 5807
5809 5810 5810 5810 5810 5810 5812 5813 5814 5814 5814 5814 5814 5813 5813 5813 5812 5812 5812 5812 5811 5811 5811 5811 5810 5810 5810 5809 5808 5808 5808 5807 5807 5806 5805 5805 5804 5803 5803 5802 5802 5802 5802 5802 5802 5802 5802 5802 5802
5805 5806 5805 5806 5806 5806 5807 5811 5810 5810 5810 5810 5809 5809 5809 5808 5808 5808 5807 5807 5807 5806 5806 5806 5805 5805 5804 5803 5803 5802 5802 5801 5801 5800 5799 5799 5798 5798 5797 5797 5797 5797 5796 5796 5796 5797 5797 5797 5797
5800 5801 5801 5802 5802 5802 5802 5807 5805 5805 5805 5805 5805 5804 5804 5803 5803 5802 5802 5801 5801 5800 5800 5800 5799 5799 5798 5798 5797 5796 5796 5795 5794 5793 5793 5792 5792 5791 5791 5791 5791 5791 5791 5791 5791 5791 5791 5791 5791
Wind_Speed
2 3 3 3 3 3 3 4 4 4 4 5 5 5 6 6 5 6 6 6 6 5 5 6 6 6 6 5 5 5 4 4 4 4 4 4 4 4 3 3 4 3 3 3 3 3 4 4 4
2 3 3 2 3 3 3 3 4 4 4 4 5 6 6 6 6 6 6 6 7 6 6 7 7 7 6 6 6 6 6 6 5 5 5 6 5 5 5 5 5 5 5 5 5 5 5 5 6
2 3 3 3 3 3 4 4 4 4 4 4 5 5 6 6 6 6 6 6 7 7 7 7 8 7 7 7 7 7 7 7 7 7 6 7 7 7 6 6 6 6 6 6 6 6 6 7 7
3 3 3 3 3 3 4 3 3 3 4 4 4 5 6 6 6 7 7 7 7 7 7 7 7 8 8 8 8 8 9 8 8 8 7 7 8 7 7 7 7 7 7 7 6 7 7 7 7
3 3 4 3 4 4 4 4 3 3 3 4 4 5 5 5 6 6 6 7 7 8 8 7 7 8 8 8 9 9 9 9 8 8 8 8 8 8 9 9 9 8 8 8 8 8 8 8 8
3 4 5 4 4 4 4 3 3 3 3 4 4 4 4 5 5 5 6 6 7 8 8 8 8 8 9 9 9 9 9 8 9 8 8 8 9 9 9 9 9 9 9 9 9 9 9 9 9
4 4 4 4 3 3 3 2 3 2 3 3 3 3 3 4 4 5 6 7 7 7 7 8 8 8 9 9 9 9 9 8 8 8 9 9 10 9 9 9 10 10 10 10 10 9 9 9 9
4 4 3 3 3 2 2 2 2 1 1 2 2 2 3 3 4 4 5 6 7 7 7 7 8 8 9 9 9 9 9 8 8 9 9 10 10 10 10 9 10 10 10 10 10 10 10 10 9
4 4 3 2 2 2 2 2 1 1 1 1 1 2 2 2 3 3 4 5 5 5 6 6 6 7 8 8 9 9 9 9 9 9 9 9 9 9 9 9 10 10 10 11 11 11 11 11 11
4 4 3 2 2 2 2 2 1 1 1 1 1 1 2 2 2 3 4 4 4 5 5 5 6 6 6 7 7 8 8 9 9 9 9 9 9 9 9 10 10 10 10 11 11 12 12 12 12
4 4 4 3 3 2 2 2 1 1 1 1 2 2 2 2 3 3 4 4 4 4 4 5 6 6 6 6 7 7 8 8 9 9 9 9 9 9 9 10 10 10 10 10 11 11 11 12 12
5 4 4 4 3 3 3 3 2 1 1 2 2 2 2 3 3 4 4 4 4 4 4 5 5 6 6 6 7 7 7 8 8 8 8 9 8 9 9 10 10 10 10 10 11 11 12 12 11
6 5 5 5 5 4 4 3 2 2 2 3 3 3 3 3 4 4 4 4 4 5 5 5 5 5 5 6 6 7 7 8 8 8 8 9 9 9 10 10 10 10 10 10 10 11 11 11 11
6 6 6 6 6 6 5 4 4 4 4 4 4 4 4 4 4 4 5 5 6 6 6 6 5 5 6 6 6 6 7 7 8 8 8 9 9 10 10 11 11 10 10 10 10 10 11 11 11
7 7 7 6 6 6 6 5 5 5 5 5 5 5 5 5 5 5 6 6 7 7 6 6 6 6 6 7 7 7 7 7 7 8 8 9 9 9 10 10 11 11 11 11 10 11 11 11 11
8 9 8 8 8 7 7 6 6 6 6 6 6 6 6 6 6 6 7 6 7 7 7 7 7 7 7 7 7 7 7 7 8 8 8 8 8 9 10 10 10 11 11 11 11 11 11 11 12
9 9 9 9 9 9 9 8 8 8 8 7 7 6 6 6 6 6 6 6 6 7 8 7 7 7 7 7 7 8 8 8 8 8 8 9 9 9 9 9 10 11 11 11 10 10 11 11 11
10 10 10 9 10 10 10 10 10 9 8 8 7 7 7 7 7 7 7 6 7 7 8 8 7 7 7 7 7 8 8 8 8 8 8 8 9 9 10 10 11 11 11 11 11 11 12 12 12
10 10 10 11 11 11 11 11 10 9 9 8 8 8 8 8 8 8 7 7 7 8 8 8 8 8 8 8 8 8 8 9 8 8 9 9 10 10 10 10 11 11 12 12 12 12 12 12 12
10 10 10 11 11 11 11 11 10 10 9 9 9 9 9 9 8 8 8 8 8 8 8 9 9 9 9 9 10 9 9 9 9 10 10 10 10 10 10 11 11 12 12 12 12 12 12 12 13
11 11 11 11 10 11 11 11 10 10 10 10 10 10 10 9 9 9 9 9 9 9 9 10 10 11 11 11 10 10 10 10 10 11 11 11 11 11 11 12 12 12 12 12 12 12 12 13 13
11 11 12 11 11 11 11 11 10 10 10 10 10 11 11 10 10 10 10 10 11 11 11 11 11 12 11 10 11 11 11 11 12 12 12 12 12 13 13 13 13 13 13 13 12 13 13 13 13
13 13 14 13 12 12 12 12 10 10 10 11 11 11 11 11 11 11 11 11 11 11 12 12 12 13 12 12 12 12 12 12 13 13 13 14 14 14 14 14 14 14 14 14 14 14 14 14 14
14 15 15 15 15 14 13 13 11 11 11 11 11 11 11 11 11 11 12 12 12 11 12 12 12 13 13 13 13 13 14 14 14 14 14 15 15 15 15 15 16 16 15 15 15 15 15 14 14
15 15 16 16 16 15 14 14 12 12 12 12 12 12 12 12 12 12 13 13 12 12 12 12 12 12 13 14 14 14 14 15 15 15 16 16 16 16 16 17 16 16 16 16 15 15 15 15 15
15 15 16 17 16 16 15 14 13 13 13 13 13 13 13 13 14 14 14 14 14 13 13 13 13 14 14 15 15 15 15 16 16 17 17 17 17 17 17 17 17 17 16 16 16 16 16 16 16
16 17 17 17 18 17 16 15 14 13 14 14 14 15 15 15 15 15 15 15 15 15 15 15 15 15 15 16 16 16 16 17 17 18 18 19 18 18 17 17 18 17 17 17 17 17 16 17 17
16 17 18 18 19 18 17 16 15 15 15 15 15 16 16 16 16 16 16 17 17 17 17 17 16 16 17 17 17 18 18 18 19 19 19 19 19 19 19 19 19 18 18 18 17 17 17 17 18
17 18 19 20 20 19 17 16 16 16 16 16 15 16 16 17 17 18 18 18 19 19 19 19 19 18 18 19 19 20 20 20 21 21 21 21 20 20 20 20 20 20 20 19 19 19 19 19 19
19 19 19 20 19 19 19 17 17 17 18 18 17 17 17 18 19 20 20 20 21 21 21 21 21 20 21 21 21 22 22 22 23 23 23 22 22 22 21 21 21 22 21 21 20 20 20 20 20
Wind_Direction
263 255 257 261 261 259 250 248 249 241 241 242 236 232 232 233 232 231 223 223 218 217 222 229 231 230 235 236 238 234 231 227 232 236 237 240 251 258 257 261 262 255 253 255 255 245 242 252 254
262 261 263 271 265 265 253 253 258 255 250 246 239 236 237 237 235 230 225 226 225 224 230 232 233 235 236 239 245 245 245 240 240 242 243 244 249 251 257 264 267 263 258 260 258 253 252 259 261
252 261 267 272 271 265 252 248 256 261 257 243 240 242 242 241 239 236 231 231 230 230 235 238 238 240 239 240 246 247 248 246 247 251 255 252 249 249 253 260 263 263 262 264 259 255 256 262 264
253 265 266 264 263 260 255 251 253 257 254 241 241 247 250 247 243 240 237 236 234 234 239 242 243 243 243 246 249 250 250 248 249 249 255 256 254 254 254 257 259 261 264 265 264 264 265 268 267
256 264 265 263 255 254 256 260 258 259 256 252 253 254 255 250 247 243 241 239 240 240 242 243 243 244 247 250 249 248 247 250 250 250 251 255 259 260 258 256 260 263 264 263 262 264 264 265 265
263 268 262 261 255 253 255 264 267 264 260 258 256 253 253 247 246 247 246 245 245 244 243 243 244 247 249 251 249 248 248 250 248 249 252 254 256 258 262 260 265 265 264 262 262 263 262 264 263
266 266 258 259 257 251 249 245 248 247 259 258 254 249 247 244 251 256 255 252 249 250 246 245 247 251 254 254 253 247 246 248 249 250 252 255 256 256 259 263 266 266 264 264 263 264 264 265 266
261 263 257 253 248 249 234 223 240 241 248 253 254 244 244 245 254 262 261 254 253 251 248 247 250 253 253 254 252 247 246 245 248 252 254 254 254 254 259 264 265 265 265 266 266 268 266 263 264
262 259 249 234 230 229 218 210 207 161 173 205 226 241 256 262 263 266 265 262 256 255 253 254 250 250 250 254 250 244 247 248 249 252 252 251 254 259 261 262 263 264 266 266 265 265 264 264 263
260 253 241 225 215 215 218 200 180 157 167 210 231 249 258 268 272 269 266 262 258 260 257 254 251 249 246 251 250 243 246 250 251 252 253 253 256 258 260 261 263 265 265 265 265 263 262 262 264
265 252 242 235 229 228 218 201 203 199 245 267 271 275 275 270 273 272 266 264 263 264 262 259 258 256 250 245 242 246 248 250 250 249 252 255 258 259 261 263 263 265 265 263 261 261 261 261 263
257 248 239 240 235 232 225 214 211 242 248 272 277 273 275 280 283 279 271 263 263 266 266 266 265 261 254 246 244 246 247 249 252 255 254 256 258 259 262 265 267 266 266 264 262 261 259 262 263
251 249 244 245 243 240 235 233 244 260 259 274 278 278 280 281 278 279 271 265 270 269 268 273 275 269 262 257 253 252 249 250 253 257 261 261 260 262 263 266 272 270 268 266 262 260 261 262 264
252 247 247 250 247 245 243 243 249 258 265 274 278 276 284 280 272 273 271 265 267 269 268 268 271 271 272 270 263 258 253 252 253 256 260 262 261 261 263 266 269 269 267 266 264 264 265 265 265
252 252 253 253 255 259 254 245 253 260 267 270 276 277 279 276 269 271 271 268 265 264 267 268 266 265 268 270 265 260 259 256 256 258 261 261 259 261 264 266 268 268 269 268 267 265 264 265 266
254 252 251 253 255 257 261 258 254 259 264 271 278 280 277 275 269 264 264 266 266 265 267 268 263 261 262 265 265 263 263 261 260 260 262 261 259 261 264 266 267 267 267 268 268 268 268 266 266
253 255 255 255 254 254 256 258 260 258 261 269 271 274 273 274 271 261 259 262 268 270 266 264 261 261 262 262 264 264 264 262 260 260 260 261 262 262 265 268 268 267 267 269 270 272 272 270 267
257 255 252 254 255 255 256 259 262 261 262 266 268 270 272 267 265 260 261 265 269 271 268 263 259 259 262 264 265 265 262 259 258 259 262 266 268 268 268 269 269 268 268 270 271 271 271 270 268
259 257 256 259 260 257 259 260 260 262 263 263 267 273 275 266 261 260 262 267 272 272 268 262 259 261 267 268 268 268 263 260 259 261 263 266 268 270 271 272 272 270 268 269 269 269 269 269 268
262 262 262 261 261 259 259 259 260 261 262 264 267 275 275 267 263 261 260 262 266 269 266 263 260 262 266 268 268 268 267 265 265 265 268 271 271 272 273 274 274 272 269 267 266 268 269 269 271
265 265 266 266 265 263 261 259 259 261 266 265 267 272 273 269 264 263 262 260 261 261 263 261 259 260 263 263 263 264 264 264 265 266 270 272 273 273 273 273 273 272 271 268 267 268 270 272 272
263 265 265 263 261 260 262 262 262 263 265 267 267 269 271 269 265 262 262 261 260 260 262 265 264 264 266 266 265 265 265 266 267 269 271 273 274 273 273 273 272 271 271 270 268 270 272 273 273
260 261 264 265 264 263 263 265 265 267 268 269 267 268 271 273 270 267 265 262 261 263 264 265 268 265 267 268 267 266 265 264 266 270 272 273 273 274 273 273 273 271 271 269 267 269 272 273 273
259 260 262 263 261 263 264 266 269 272 274 271 267 268 271 271 272 272 269 268 267 267 267 267 268 267 265 265 266 265 265 265 268 269 271 273 275 275 275 273 274 274 272 271 270 270 270 271 273
258 260 261 260 259 263 265 265 270 270 272 273 272 269 269 271 272 273 272 271 270 271 272 271 271 270 268 266 267 267 266 266 268 271 272 273 274 274 273 272 271 271 271 271 272 271 269 270 273
259 260 263 264 261 263 265 265 268 270 270 273 274 273 268 269 270 271 271 272 271 272 273 273 273 273 270 269 270 270 269 268 268 270 272 273 274 273 271 271 272 272 271 272 272 272 272 271 272
258 260 265 266 265 267 266 266 266 268 270 271 273 274 270 269 270 269 270 272 272 273 273 273 274 275 274 273 271 271 270 271 272 274 273 273 275 274 270 270 271 271 271 272 271 271 272 272 273
258 262 263 265 269 269 267 265 267 266 267 270 272 272 271 272 270 271 270 270 271 273 274 276 277 277 276 274 274 273 271 273 275 276 275 276 274 272 270 270 270 269 270 271 271 271 272 273 273
260 261 265 266 268 268 267 266 267 267 268 271 274 274 272 273 271 270 269 269 270 272 273 274 276 275 276 277 276 275 274 275 276 275 276 276 275 272 271 269 269 269 270 271 270 270 271 272 272
259 261 265 268 268 268 269 268 266 266 269 271 273 274 273 274 272 270 270 270 270 271 273 274 274 274 275 276 276 277 276 275 275 274 276 275 273 271 270 269 269 270 269 269 270 270 270 272 272